Regional Weather Roundup
Issued by NWS

Home | Current Version | Previous Version | Text Only | Print | Product List | Glossary On
Versions: 1 2 3 4 5 6 7 8 9 10 11 12 13 14 15 16 17 18 19 20 21 22 23 24 25 26 27
000
ASUS45 KBOU 200206
RWRCO

WEATHER ROUNDUP FOR COLORADO
NATIONAL WEATHER SERVICE DENVER/BOULDER CO
800 PM MDT SAT APR 19 2014

NOTE: "FAIR" INDICATES FEW OR NO CLOUDS BELOW 12000 FEET WITH NO
SIGNIFICANT WEATHER AND/OR OBSTRUCTIONS TO VISIBILITY.

COZ001>005-013-030-031-200300-
...NORTHWEST COLORADO...

CITY           SKY/WX    TMP DP  RH WIND       PRES   REMARKS
CRAIG          CLEAR     49  38  65 SE7       30.06S
HAYDEN         MOCLDY    48  39  71 S7        30.11R
MEEKER         MOCLDY    56  38  50 SE7       30.07R
MOUNT WERNER   PTCLDY    39  28  65 NW7       30.26R
STEAMBOAT SPGS CLEAR     51  32  49 SE6       30.10R
WALDEN         CLOUDY    45  32  61 E7        30.15R
$$

COZ006>008-011-200300-
...WEST CENTRAL VALLEYS...

CITY           SKY/WX    TMP DP  RH WIND       PRES   REMARKS
GRAND JUNCTION MOCLDY    60  45  57 SW5       30.04R
MONTROSE       MOCLDY    56  47  71 E7        30.09R
EAGLE          CLOUDY    55  39  54 E6        30.11R
RIFLE          CLOUDY    60  38  43 W8        30.05R
DELTA          MOCLDY    61  40  47 E3        30.06R
NUCLA            N/A     55  41  58 E6        30.11S
$$

COZ017>023-064>068-200300-
...SOUTHWEST COLORADO...

CITY           SKY/WX    TMP DP  RH WIND       PRES   REMARKS
DURANGO        CLOUDY    56  34  43 NW6       30.08R
CORTEZ         CLEAR     59  31  34 W6        30.07R
PAGOSA SPRINGS CLOUDY    50  37  61 CALM      30.13R
TELLURIDE      MOCLDY    45  36  70 S3        30.21R
WOLF CREEK PAS CLOUDY    32  28  86 SW15      30.29S WCI  22
$$

COZ009-010-012-014-032>034-037-058>063-200300-
...CENTRAL COLORADO...

CITY           SKY/WX    TMP DP  RH WIND       PRES   REMARKS
ASPEN          CLOUDY    51  35  54 N8        30.12R
BUENA VISTA    CLOUDY    49  37  64 W5        30.14R
COPPER MTN     FOG       34  32  93 W7        30.31R VSB 1/2 WCI  28
BERTHOUD PASS  HVY SNOW  28  19  69 SW9       30.33S VSB<1/4 WCI  20
COTTONWOOD PAS CLOUDY    45  34  65 NW3       30.22R
GUNNISON       CLOUDY    52  32  46 W5        30.16R
KREMMLING      CLOUDY    46  37  71 CALM      30.16R
LEADVILLE      LGT RAIN  35  33  92 NE7       30.22R WCI  29
MONARCH PASS   FLURRIES  32  30  93 S7        30.41R WCI  26
SALIDA         CLOUDY    52  37  56 W14       30.20R
SUNLIGHT       CLOUDY    37  34  87 CALM      30.27R
WILKERSON PASS SNOW      32  32 100 E3        30.31R VSB 1/2
$$

COZ069>075-200300-
...SAN LUIS VALLEY/SANGRE DE CRISTO MOUNTAINS...

CITY           SKY/WX    TMP DP  RH WIND       PRES   REMARKS
ALAMOSA        CLOUDY    54  31  41 S9        30.06R
LA VETA PASS   CLOUDY    39  32  75 E6        30.22R
SAGUACHE       LGT RAIN  54  32  43 NW15      30.11R
$$

COZ035-036-038>040-200300-
...NORTHERN COLORADO FRONT RANGE...

CITY           SKY/WX    TMP DP  RH WIND       PRES   REMARKS
DENVER INTL AP CLOUDY    53  48  83 W9        30.08R
DMNS CITY PARK   N/A     53  46  77 NE3       30.08S
AURORA         CLOUDY    50  50 100 NW6       30.10R
FRONT RANGE AP NOT AVBL
ERIE MUNI ARPT LGT RAIN  52  49  89 S5        30.07S
BOULDER MUN AP CLOUDY    52  45  76 SW5       30.07S
CENTENNIAL     LGT RAIN  51  46  83 CALM      30.10R
BROOMFIELD     CLOUDY    54  46  76 N5        30.09S
FORT COLLINS   CLOUDY    54  45  71 SW7       30.08R
LONGMONT       CLOUDY    53  48  85 CALM      30.08F
$$

COZ041-046-047-076>085-087-088-200300-
...PIKES PEAK/PALMER DIVIDE AND SOUTHERN FOOTHILLS...

CITY           SKY/WX    TMP DP  RH WIND       PRES   REMARKS
COLO. SPRINGS  MOCLDY    53  40  61 NW6       30.08S
A. F. ACADEMY  MOCLDY    48  41  77 N7        30.10S
ELLICOTT       NOT AVBL
FALCON         MOCLDY    52  32  45 N3        30.12R
FORT CARSON    MOCLDY    52  43  72 NW12      30.05S
LIMON          PTCLDY    53  38  56 VRB3      30.04R
MONUMENT HILL  MOCLDY    45  41  87 N7        30.12S
TRINIDAD       CLOUDY    58  40  51 SW20      30.01F
$$

COZ042>045-048>051-090-091-200300-
...NORTHEAST COLORADO...

CITY           SKY/WX    TMP DP  RH WIND       PRES   REMARKS
GREELEY ARPT   CLOUDY    55  45  67 SW6       30.06F
AKRON          PTCLDY    52  38  58 E9        30.02S
BURLINGTON     MOCLDY    60  45  57 E9        30.01R
WRAY           PTCLDY    58  41  54 N9        30.00S
STERLING       PTCLDY    63  37  39 SE5       30.01S
HOLYOKE        MOCLDY    59  41  51 E10       30.01F
FORT MORGAN    PTCLDY    50  37  59 N3        30.05R
$$

COZ086-089-092>099-200300-
...SOUTHEAST COLORADO...

CITY           SKY/WX    TMP DP  RH WIND       PRES   REMARKS
PUEBLO         MOCLDY    66  36  32 NE15      29.97R
LA JUNTA       CLOUDY    67  43  41 NE25G32   29.90S
LAMAR          CLOUDY    65  47  52 SE12      29.88R
SPRINGFIELD      N/A     61  44  53 S14       29.96R
$$



USA.gov is the U.S. government's official web portal to all federal, state and local government web resources and services.